Weather in Bryansk

Russia / Bryansk Oblast     53°14′35″N   34°21′49″E
temp.,
°C
wind,
m/s
gust,
m/s
humid.,
%
clouds,
%
prec.,
mm/h
press.,
hPa
HPBL,
m
24 july, sat
sat2400:00+16wnw257879 0.0 1012101
03:00+14nw22885 0.0 101340
06:00+14n238689 0.0 101384
09:00+18nne226932 0.0 1014297
12:00+21ne335318 0.0 1015974
15:00+23nnw224636 0.0 10151518
18:00+21ene2256100 0.0 1016525
21:00+18ene2259100 0.0 101723
25 july, sun
sun2500:00+17ese2360100 0.0 101866
03:00+16e2462100 0.0 101998
06:00+16e2365100 0.0 102064
09:00+17ese236999 0.0 1021148
12:00+21ese335595 0.0 1022665
15:00+23se33505 0.0 10221398
18:00+22se346294 0.0 1021453
21:00+19se2462100 0.0 102276
26 july, mon
mon2600:00+18se2462100 0.0 102389
03:00+18se246190 0.0 102476
06:00+17se2465100 0.0 102481
09:00+18ese246891 0.0 1025164
12:00+24se334711 0.0 10241160
15:00+26sse224223 0.0 10241951
18:00+24se225378 0.0 1023619
21:00+19se33668 0.0 102445
27 july, tue
tue2700:00+17sse227020 0.0 102421
03:00+16sse227150 0.0 102413
06:00+17se226981 0.0 102542
09:00+20se236278 0.0 1024197
12:00+26s22440 0.0 10241244
15:00+27sw223927 0.0 10222180
18:00+26w225262 0.0 1021813
21:00+21se33633 0.0 102149
28 july, wed
wed2800:00+18sse3366100 0.0 102130
03:00+17se346875 0.0 102061
06:00+16sse377398 0.0 1019125
09:00+22s485583 0.0 1018420
12:00+27s6742100 0.0 10161365
15:00+24sse4956100 0.0 1014249
18:00+22se4107595 0.5 1012228
21:00+21sse3676100 0.5 1010104